Regional Weather Roundup
Issued by NWS

Home | Current Version | Previous Version | Text Only | Print | Product List | Glossary Off
Versions: 1 2 3 4 5 6 7 8 9 10 11 12 13 14 15 16 17 18 19 20 21 22 23 24 25 26 27 28 29 30 31 32 33 34 35 36 37 38 39 40 41 42 43 44 45 46 47 48 49 50

107
ASUS45 KBOU 272207
RWRCO

WEATHER ROUNDUP FOR COLORADO
NATIONAL WEATHER SERVICE DENVER/BOULDER CO
400 PM MDT SAT MAY 27 2017

NOTE: "FAIR" INDICATES FEW OR NO CLOUDS BELOW 12000 FEET WITH NO
SIGNIFICANT WEATHER AND/OR OBSTRUCTIONS TO VISIBILITY.

COZ001>005-013-030-031-272300-
...NORTHWEST COLORADO...

CITY           SKY/WX    TMP DP  RH WIND       PRES   REMARKS
CRAIG          FAIR      60  32  34 VRB7      30.21S
HAYDEN         PTSUNNY   54  37  54 E12       30.22S
MEEKER         FAIR      58  33  39 VRB5      30.21S
RABBIT EARS PA NOT AVBL
STEAMBOAT SPGS NOT AVBL
WALDEN         NOT AVBL
$$

COZ006>008-011-272300-
...WEST CENTRAL VALLEYS...

CITY           SKY/WX    TMP DP  RH WIND       PRES   REMARKS
GRAND JUNCTION PTSUNNY   74  30  19 E9        30.09S
MONTROSE       FAIR      68  24  19 N10G21    30.13S
EAGLE          PTSUNNY   55  36  47 E13G18    30.22S
RIFLE          FAIR      68  28  22 NW13G21   30.14F
DELTA          FAIR      76  17  10 W13G24    30.08S
NUCLA          NOT AVBL
$$

COZ017>023-064>068-272300-
...SOUTHWEST COLORADO...

CITY           SKY/WX    TMP DP  RH WIND       PRES   REMARKS
DURANGO        FAIR      69  22  16 W20G28    30.10F
CORTEZ         FAIR      73  21  14 W16G25    30.10S
PAGOSA SPRINGS PTSUNNY   65  14  13 SW16G29   30.14S
TELLURIDE      FAIR      57   6  13 W12G26    30.27S
WOLF CREEK PAS NOT AVBL
$$

COZ009-010-012-014-032>034-037-058>063-272300-
...CENTRAL COLORADO...

CITY           SKY/WX    TMP DP  RH WIND       PRES   REMARKS
ASPEN          PTSUNNY   46  38  73 SE15      30.22S
BUENA VISTA    FAIR      61  18  18 NW17G24   30.16R
COPPER MTN     NOT AVBL
BERTHOUD PASS  NOT AVBL
COTTONWOOD PAS NOT AVBL
GUNNISON       FAIR      59  21  23 W16G22    30.16S
KREMMLING      NOT AVBL
LEADVILLE      FLURRIES  35  30  82 VRB3      30.30R
SALIDA         FAIR      68  14  12 W16G23    30.19S
SUNLIGHT       NOT AVBL
WILKERSON PASS NOT AVBL
$$

COZ069>075-272300-
...SAN LUIS VALLEY/SANGRE DE CRISTO MOUNTAINS...

CITY           SKY/WX    TMP DP  RH WIND       PRES   REMARKS
ALAMOSA        FAIR      70  22  16 W25G37    30.10F
DEL NORTE      NOT AVBL
LA VETA PASS   NOT AVBL
SAGUACHE       NOT AVBL
$$

COZ035-036-038>040-272300-
...NORTHERN COLORADO FRONT RANGE...

CITY           SKY/WX    TMP DP  RH WIND       PRES   REMARKS
DENVER INTL AP PTSUNNY   53  44  71 VRB3      30.17F
DMNS CITY PARK   N/A     54  42  65 SW3G9     30.18S
AURORA         PTSUNNY   52  44  73 CALM      30.19R
FRONT RANGE AP PTSUNNY   54  48  82 CALM      30.18R
ERIE MUNI ARPT NOT AVBL
BOULDER MUN AP NOT AVBL
CENTENNIAL     PTSUNNY   50  43  77 VRB3      30.19R
BROOMFIELD     NOT AVBL
FORT COLLINS   FAIR      60  42  51 NE9       30.15R
LONGMONT       NOT AVBL
$$

COZ041-046-047-076>085-087-088-272300-
...PIKES PEAK/PALMER DIVIDE AND SOUTHERN FOOTHILLS...

CITY           SKY/WX    TMP DP  RH WIND       PRES   REMARKS
COLO. SPRINGS  PTSUNNY   50  42  74 N18G25    30.19R
A. F. ACADEMY  CLOUDY    46  40  81 N15       30.19R
SCHRIEVER AFB  PTSUNNY   47  40  79 N23G30    30.17
CHEYENNE MTN   LGT RAIN  43  39  86 NW22G29   30.14
ELLICOTT       FAIR     N/A N/A N/A NE23G29   30.16R
FALCON         PTSUNNY   46  41  83 N20G29    30.20F
FORT CARSON    LGT RAIN  49  42  77 N20       30.16R
LIMON          LGT RAIN  46  43  89 N20       30.20R
MONUMENT HILL  NOT AVBL
CANON CITY     NOT AVBL
WALSENBURG     CLOUDY    59  52  77 N22G28    30.11R
TRINIDAD       FAIR      66  45  46 E13       30.02F
$$

COZ042>045-048>051-090-091-272300-
...NORTHEAST COLORADO...

CITY           SKY/WX    TMP DP  RH WIND       PRES   REMARKS
GREELEY ARPT   CLOUDY    58  40  51 NW18G25   30.14S
AKRON          LGT RAIN  52  45  77 W9        30.13R
BURLINGTON     PTSUNNY   62  45  53 N16G23    30.08R
WRAY           FAIR      61  46  59 N8        30.08R
YUMA           NOT AVBL
STERLING       NOT AVBL
HOLYOKE        NOT AVBL
FORT MORGAN    PTSUNNY   59  40  50 NW15G21   30.13S
$$

COZ086-089-092>099-272300-
...SOUTHEAST COLORADO...

CITY           SKY/WX    TMP DP  RH WIND       PRES   REMARKS
PUEBLO         CLOUDY    59  45  59 NE25G35   30.07F
LA JUNTA       CLOUDY    69  45  41 NE22      30.02R
LAMAR          PTSUNNY   70  47  43 NE14      29.99R
SPRINGFIELD      N/A     72  53  51 E14G22    29.98F
$$




USA.gov is the U.S. government's official web portal to all federal, state and local government web resources and services.